Location: Czu?�w
(50.1404°N, 18.9919°E)
Time: 02:27:27
(UTC+00:00)

Cosmos 1726 Rocket - Pass Details

Date: 27 October 2020
Orbit: 604 x 629 km, 82.5° (Epoch: 24 November)

Event Time Altitude Azimuth Distance (km) Brightness Sun altitude
Rises 16:51:25 0° 194° (SSW) 2,858 7.2 -13.8°
Reaches altitude 10° 16:53:37 10° 197° (SSW) 1,962 6.4 -14.1°
Maximum altitude 16:57:57 71° 281° (W) 656 3.8 -14.8°
Drops below altitude 10° 17:02:21 10° 6° (N) 1,994 6.1 -15.5°
Sets 17:04:37 0° 9° (N) 2,909 6.9 -15.9°
